Weather History for KJKJ - September, 2013

Change the Weather History Date:

Monday, September 2, 2013

  Actual Average (KFAR) Record (KFAR)
Temperature  
Mean Temperature 56 °F 65 °F  
Max Temperature 71 °F 77 °F 99 °F (1976)
Min Temperature 42 °F 53 °F 34 °F (1946)
Degree Days  
Heating Degree Days 8 3  
Month to date heating degree days 6  
Since 1 July heating degree days 56  
Cooling Degree Days 0 3  
Month to date cooling degree days 6  
Year to date cooling degree days 511  
Growing Degree Days 6 (Base 50)    
Moisture  
Dew Point 48 °F    
Average Humidity 75    
Maximum Humidity 100    
Minimum Humidity 33    
Precipitation  
Precipitation 0.00 in 0.09 in 3.37 in (1957)
Month to date precipitation 0.19  
Year to date precipitation 16.25  
Snow  
Snow 0.00 in 0.00 in 0.00 in ()
Month to date snowfall 0.0  
Since 1 July snowfall 0.0  
Since 1 September snowfall 0.0  
Snow Depth -    
Sea Level Pressure  
Sea Level Pressure 30.09 in    
Wind  
Wind Speed 1 mph (East)    
Max Wind Speed 6 mph    
Max Gust Speed -    
Visibility 9 miles    
Events Fog    
T = Trace of Precipitation, MM = Missing Value Source: NWS Daily Summary

Daily Weather History Graph

Daily Weather History Graph

Search for Another Location

Airport or City:

Trip Planner

Search our weather history database for the weather conditions in past years. The results will help you decide how hot, cold, wet, or windy it might be!

Date:

Astronomy

Sep. 02, 2013 Rise Set
Actual Time 6:47 AM CDT 8:03 PM CDT
Civil Twilight 6:16 AM CDT 8:34 PM CDT
Nautical Twilight 5:38 AM CDT 9:12 PM CDT
Astronomical Twilight 4:58 AM CDT 9:52 PM CDT
Moon 3:59 AM CDT (9/2) 6:22 PM CDT (9/2)
Length of Visible Light 14h 18m
Length of Day
13h 15m
Waning Crescent, 8% of the Moon is Illuminated
Sep 2
Waning Crescent
Sep 5
New
Sep 12
First Quarter
Sep 19
Full
Sep 26
Last Quarter

Hourly Weather History & Observations

Time (CDT) Temp. Windchill Dew Point Humidity Pressure Visibility Wind Dir Wind Speed Gust Speed Precip Events Conditions
12:14 AM 50.0 °F - 50.0 °F 100% 30.07 in 10.0 mi Calm Calm - N/A   Clear
12:35 AM 48.2 °F - 48.2 °F 100% 30.07 in 10.0 mi Calm Calm - N/A   Clear
12:55 AM 46.4 °F - 46.4 °F 100% 30.08 in 10.0 mi Calm Calm - N/A   Clear
1:14 AM 46.4 °F - 46.4 °F 100% 30.08 in 10.0 mi Calm Calm - N/A   Clear
1:35 AM 46.4 °F 45.2 °F 46.4 °F 100% 30.09 in 10.0 mi North 3.5 mph - N/A   Clear
1:55 AM 46.4 °F - 46.4 °F 100% 30.09 in 10.0 mi Calm Calm - N/A   Clear
2:14 AM 46.4 °F - 46.4 °F 100% 30.08 in 10.0 mi Calm Calm - N/A   Clear
2:35 AM 46.4 °F - 46.4 °F 100% 30.08 in 10.0 mi Calm Calm - N/A   Clear
2:55 AM 44.6 °F - 44.6 °F 100% 30.09 in 10.0 mi Calm Calm - N/A   Clear
3:14 AM 44.6 °F - 44.6 °F 100% 30.09 in 2.0 mi Calm Calm - N/A   Clear
3:35 AM 44.6 °F - 44.6 °F 100% 30.09 in 1.5 mi Calm Calm - N/A   Clear
3:55 AM 44.6 °F 43.1 °F 44.6 °F 100% 30.09 in 7.0 mi NNW 3.5 mph - N/A   Scattered Clouds
4:14 AM 44.6 °F 43.1 °F 44.6 °F 100% 30.10 in 10.0 mi NNW 3.5 mph - N/A   Clear
4:35 AM 44.6 °F 43.1 °F 44.6 °F 100% 30.10 in 10.0 mi North 3.5 mph - N/A   Clear
4:54 AM 44.6 °F - 44.6 °F 100% 30.11 in 10.0 mi Calm Calm - N/A   Clear
5:15 AM 44.6 °F - 44.6 °F 100% 30.11 in 10.0 mi Calm Calm - N/A   Clear
5:35 AM 44.6 °F 43.1 °F 44.6 °F 100% 30.12 in 10.0 mi North 3.5 mph - N/A   Clear
5:54 AM 42.8 °F - 42.8 °F 100% 30.12 in 1.8 mi Calm Calm - N/A   Clear
6:15 AM 42.8 °F - 42.8 °F 100% 30.13 in 0.8 mi Calm Calm - N/A   Mostly Cloudy
6:35 AM 42.8 °F 41.1 °F 42.8 °F 100% 30.13 in 0.8 mi North 3.5 mph - N/A   Mostly Cloudy
6:54 AM 44.6 °F - 44.6 °F 100% 30.13 in 0.5 mi Calm Calm - N/A Fog Fog
7:15 AM 42.8 °F - 42.8 °F 100% 30.14 in 10.0 mi Calm Calm - N/A   Mostly Cloudy
7:35 AM 44.6 °F - 44.6 °F 100% 30.14 in 2.0 mi Calm Calm - N/A   Mostly Cloudy
7:54 AM 46.4 °F - 46.4 °F 100% 30.14 in 10.0 mi Calm Calm - N/A   Scattered Clouds
8:15 AM 48.2 °F - 48.2 °F 100% 30.15 in 10.0 mi Calm Calm - N/A   Clear
8:35 AM 50.0 °F - 50.0 °F 100% 30.15 in 10.0 mi Calm Calm - N/A   Clear
8:54 AM 51.8 °F - 51.8 °F 100% 30.15 in 10.0 mi NE 4.6 mph - N/A   Clear
9:15 AM 53.6 °F - 53.6 °F 100% 30.15 in 10.0 mi NNE 3.5 mph - N/A   Clear
9:34 AM 55.4 °F - 53.6 °F 94% 30.15 in 10.0 mi NNE 5.8 mph - N/A   Clear
9:55 AM 57.2 °F - 53.6 °F 88% 30.15 in 10.0 mi NE 5.8 mph - N/A   Clear
10:15 AM 57.2 °F - 53.6 °F 88% 30.14 in 10.0 mi Calm Calm - N/A   Clear
10:34 AM 60.8 °F - 51.8 °F 72% 30.14 in 10.0 mi NNE 3.5 mph - N/A   Clear
10:55 AM 60.8 °F - 51.8 °F 72% 30.14 in 10.0 mi NNE 3.5 mph - N/A   Clear
11:15 AM 60.8 °F - 51.8 °F 72% 30.14 in 10.0 mi NNE 5.8 mph - N/A   Scattered Clouds
11:34 AM 62.6 °F - 51.8 °F 68% 30.14 in 10.0 mi Calm Calm - N/A   Scattered Clouds
11:55 AM 62.6 °F - 51.8 °F 68% 30.13 in 10.0 mi Calm Calm - N/A   Scattered Clouds
12:15 PM 62.6 °F - 50.0 °F 63% 30.13 in 10.0 mi ENE 3.5 mph - N/A   Clear
12:34 PM 64.4 °F - 50.0 °F 59% 30.12 in 10.0 mi Calm Calm - N/A   Clear
12:55 PM 66.2 °F - 50.0 °F 56% 30.11 in 10.0 mi Calm Calm - N/A   Clear
1:15 PM 66.2 °F - 48.2 °F 52% 30.11 in 10.0 mi NNE 4.6 mph - N/A   Clear
1:34 PM 66.2 °F - 48.2 °F 52% 30.11 in 10.0 mi Calm Calm - N/A   Clear
1:55 PM 66.2 °F - 48.2 °F 52% 30.10 in 10.0 mi Calm Calm - N/A   Clear
2:14 PM 69.8 °F - 48.2 °F 46% 30.09 in 10.0 mi ESE 4.6 mph - N/A   Clear
2:35 PM 69.8 °F - 48.2 °F 46% 30.09 in 10.0 mi NNE 3.5 mph - N/A   Clear
2:55 PM 69.8 °F - 46.4 °F 43% 30.08 in 10.0 mi SE 3.5 mph - N/A   Clear
3:14 PM 69.8 °F - 46.4 °F 43% 30.07 in 10.0 mi Calm Calm - N/A   Clear
3:35 PM 69.8 °F - 46.4 °F 43% 30.07 in 10.0 mi South 3.5 mph - N/A   Clear
3:55 PM 71.6 °F - 44.6 °F 38% 30.06 in 10.0 mi South 4.6 mph - N/A   Clear
4:14 PM 71.6 °F - 44.6 °F 38% 30.05 in 10.0 mi South 4.6 mph - N/A   Clear
4:35 PM 71.6 °F - 42.8 °F 35% 30.05 in 10.0 mi Calm Calm - N/A   Clear
4:55 PM 71.6 °F - 44.6 °F 38% 30.04 in 10.0 mi SE 4.6 mph - N/A   Clear
5:14 PM 71.6 °F - 44.6 °F 38% 30.04 in 10.0 mi South 4.6 mph - N/A   Clear
5:35 PM 71.6 °F - 44.6 °F 38% 30.04 in 10.0 mi SSE 3.5 mph - N/A   Clear
5:54 PM 71.6 °F - 44.6 °F 38% 30.04 in 10.0 mi South 3.5 mph - N/A   Clear
6:15 PM 71.6 °F - 44.6 °F 38% 30.04 in 10.0 mi Calm Calm - N/A   Clear
6:35 PM 71.6 °F - 42.8 °F 35% 30.04 in 10.0 mi Calm Calm - N/A   Clear
6:54 PM 71.6 °F - 42.8 °F 35% 30.04 in 10.0 mi Calm Calm - N/A   Clear
7:15 PM 71.6 °F - 41.0 °F 33% 30.03 in 10.0 mi Calm Calm - N/A   Clear
7:35 PM 71.6 °F - 44.6 °F 38% 30.03 in 10.0 mi Calm Calm - N/A   Clear
7:54 PM 69.8 °F - 51.8 °F 53% 30.03 in 10.0 mi Calm Calm - N/A   Clear
8:15 PM 66.2 °F - 55.4 °F 68% 30.03 in 10.0 mi Calm Calm - N/A   Clear
8:34 PM 66.2 °F - 55.4 °F 68% 30.03 in 10.0 mi Calm Calm - N/A   Clear
8:54 PM 64.4 °F - 53.6 °F 68% 30.03 in 10.0 mi Calm Calm - N/A   Clear
9:15 PM 64.4 °F - 53.6 °F 68% 30.03 in 10.0 mi Calm Calm - N/A   Clear
9:34 PM 60.8 °F - 53.6 °F 77% 30.03 in 10.0 mi Calm Calm - N/A   Clear
9:54 PM 62.6 °F - 53.6 °F 72% 30.03 in 10.0 mi SE 4.6 mph - N/A   Clear
10:15 PM 60.8 °F - 53.6 °F 77% 30.03 in 10.0 mi SSE 3.5 mph - N/A   Clear
10:34 PM 60.8 °F - 53.6 °F 77% 30.03 in 10.0 mi SSE 4.6 mph - N/A   Clear
10:55 PM 60.8 °F - 53.6 °F 77% 30.03 in 10.0 mi SE 4.6 mph - N/A   Clear
11:14 PM 57.2 °F - 53.6 °F 88% 30.03 in 10.0 mi SSE 4.6 mph - N/A   Clear
11:35 PM 57.2 °F - 53.6 °F 88% 30.02 in 10.0 mi SSE 4.6 mph - N/A   Clear
11:55 PM 57.2 °F - 53.6 °F 88% 30.02 in 10.0 mi SSE 5.8 mph - N/A   Clear